Temp
18 19 19 23 26 26 28 28 25 26 26 26 25 27 28 27 29 28 20 20 20 20 20 20 20 20 20 20 20 19 19 19 19 19 19 19 19 19 19 19 18 18 18 19 19 19 18 18 18
19 19 21 24 26 27 29 26 26 26 25 24 24 25 26 28 24 22 22 20 20 20 20 20 20 20 20 20 19 19 18 18 19 19 19 19 18 18 18 18 18 18 18 18 19 19 18 18 18
19 20 24 25 26 27 28 26 26 24 24 24 25 24 25 26 23 23 21 20 21 21 21 20 20 20 20 19 19 19 19 19 19 19 19 18 18 18 18 18 18 18 18 18 19 19 18 18 17
19 22 22 24 26 25 25 25 24 24 24 23 24 25 23 22 22 22 20 20 21 21 21 20 20 20 19 19 19 19 19 19 19 19 19 19 18 18 18 18 18 18 18 19 18 18 18 18 18
19 22 24 24 24 24 24 23 23 24 24 24 23 25 24 21 20 20 20 20 21 21 20 19 20 20 20 20 19 19 19 19 19 19 19 19 18 18 18 18 19 18 19 19 18 18 18 18 18
21 21 23 25 25 23 23 22 22 23 24 24 23 23 24 20 20 20 20 20 20 20 19 19 20 20 20 20 20 19 19 19 19 19 19 19 19 18 19 18 18 19 19 19 18 18 18 18 18
21 22 22 22 23 22 22 21 22 23 23 24 22 23 23 21 20 19 19 19 19 19 19 19 19 20 20 20 20 20 20 19 19 19 19 19 19 19 19 19 19 19 19 19 19 18 18 18 18
20 21 21 21 24 22 20 20 20 21 23 21 22 23 23 22 19 18 18 19 19 19 19 19 18 18 18 18 19 19 19 20 20 19 19 19 19 19 19 19 19 19 19 19 19 19 18 19 18
17 21 22 22 20 22 20 19 21 19 19 21 22 21 21 19 18 19 19 19 19 18 18 18 19 18 17 17 19 19 19 19 20 20 19 19 19 19 19 19 19 19 19 19 18 18 18 18 18
19 20 21 19 18 19 19 18 19 19 21 20 21 21 19 18 18 19 20 20 20 20 19 18 18 18 17 17 17 18 18 18 18 18 19 19 18 18 19 19 19 19 19 19 18 18 18 18 18
17 20 17 18 18 17 17 18 19 18 19 21 21 21 20 19 19 18 19 19 19 19 18 18 17 17 17 17 17 17 17 17 18 18 18 19 19 18 18 19 18 18 18 18 18 17 18 18 19
18 17 17 17 17 16 17 18 18 19 19 21 21 20 19 20 20 19 18 18 18 18 17 17 17 16 16 17 17 17 17 17 17 17 17 18 19 19 19 18 18 19 19 19 20 19 18 19 19
16 17 16 17 16 16 17 16 17 18 20 20 20 19 18 18 19 19 18 17 17 17 17 17 16 16 16 15 16 16 17 17 17 16 16 17 18 19 20 18 18 19 18 18 20 20 20 19 19
16 16 16 16 17 16 16 17 18 18 19 19 18 19 19 19 18 18 18 17 17 17 17 16 16 15 15 15 15 16 16 16 15 15 15 15 17 18 19 19 18 18 18 18 18 18 18 20 20
15 14 17 16 16 17 16 16 16 18 19 18 18 18 18 18 18 17 17 18 17 17 16 15 15 15 15 15 15 15 15 15 15 15 15 15 15 16 17 18 19 18 18 18 18 18 17 17 18
16 15 17 17 17 17 15 16 19 20 18 18 18 18 17 17 17 18 17 17 16 16 15 15 14 14 14 14 14 15 14 14 15 15 15 14 14 15 16 17 18 19 19 17 18 17 17 17 17
16 17 16 16 16 15 15 16 18 18 18 17 17 18 18 18 18 18 17 16 16 15 15 14 13 14 14 13 13 13 13 14 14 14 14 14 14 14 15 16 17 18 19 17 17 17 17 17 17
16 16 16 16 17 16 15 16 17 18 18 17 17 17 17 18 18 18 16 16 15 14 14 14 13 13 13 13 13 13 13 13 13 13 14 14 13 14 14 15 16 17 18 19 17 17 17 17 17
14 14 15 17 16 14 16 15 17 18 18 17 17 16 17 17 17 17 16 15 14 14 14 14 13 13 12 13 13 14 14 14 13 13 12 12 13 13 14 14 15 16 17 18 18 18 16 17 17
14 15 16 16 16 14 15 15 18 17 16 16 16 16 16 16 17 17 17 15 14 15 14 13 13 13 12 12 12 12 12 12 12 12 12 11 12 12 13 14 14 15 16 17 17 18 18 17 16
16 15 16 14 14 15 14 20 19 19 18 17 16 15 15 15 16 17 17 16 14 14 14 13 13 12 12 12 11 11 11 10 10 12 12 12 12 12 12 13 13 14 15 16 16 17 18 18 17
15 14 13 13 13 16 14 17 19 19 19 18 17 16 14 14 15 15 15 16 15 14 13 12 12 12 12 12 12 12 12 12 12 11 11 11 11 12 12 12 13 13 14 15 16 16 17 17 18
15 15 13 13 13 13 15 14 20 20 19 18 16 16 14 13 14 14 15 14 14 13 13 12 12 12 12 11 11 11 12 12 11 10 10 10 10 11 11 11 12 13 13 14 15 15 16 16 17
14 14 13 12 13 16 13 14 20 19 17 17 18 17 15 15 14 14 13 13 14 13 12 12 12 12 12 11 11 11 12 12 11 10 10 10 10 10 11 11 11 12 13 14 14 14 15 15 16
15 16 17 18 16 18 13 14 18 19 18 16 15 16 16 15 15 15 15 15 14 13 13 12 12 12 12 12 11 12 12 11 10 10 10 10 11 11 11 12 11 12 13 13 13 14 14 14 15
13 14 15 16 17 16 15 16 21 18 18 16 15 15 15 16 15 15 15 14 14 13 13 13 13 12 12 12 11 11 11 11 11 11 10 10 10 10 11 11 11 12 12 13 13 13 14 14 14
14 14 12 12 10 12 16 18 18 18 18 18 17 16 16 16 16 15 15 14 14 14 13 13 12 12 11 11 11 11 11 11 10 10 10 10 9 10 10 10 11 11 11 12 13 13 13 14 14
13 12 13 13 14 16 19 17 19 19 19 18 18 17 17 16 15 15 15 14 14 13 13 12 12 11 11 11 11 10 10 10 10 10 10 9 9 9 9 10 11 11 11 12 12 13 13 13 14
12 12 12 11 13 15 15 19 19 18 17 16 17 17 17 16 16 16 16 15 14 13 12 12 12 11 11 11 10 10 10 10 10 9 9 9 9 9 9 10 11 11 11 11 12 11 12 13 14
12 13 14 14 13 12 12 14 16 16 15 14 15 15 16 15 15 15 15 15 14 13 13 12 12 11 11 11 10 10 10 10 10 9 9 8 8 8 9 9 9 11 11 11 12 13 13 13 13
Height
804 803 804 802 810 807 801 798 797 798 798 790 791 787 784 785 781 793 798 798 799 800 801 802 803 805 806 807 809 810 811 812 812 813 813 814 814 814 815 816 817 817 818 819 819 818 820 820 821
804 805 805 803 808 807 792 796 800 794 795 796 795 793 791 784 790 794 796 799 800 801 802 802 802 803 805 807 808 809 810 811 812 813 813 813 813 814 814 815 816 817 818 819 819 819 820 821 822
805 805 803 805 805 803 797 798 795 798 798 797 795 795 791 788 793 794 797 799 800 801 802 801 802 802 804 806 808 809 810 811 812 812 813 812 813 813 814 814 815 816 817 818 819 819 820 821 822
807 807 811 810 805 801 800 797 800 799 799 798 795 794 794 794 794 796 798 800 801 802 802 802 802 803 803 804 806 807 808 809 810 811 812 812 812 813 814 815 815 815 816 817 818 819 820 820 821
809 807 808 810 806 804 800 802 802 799 797 797 799 790 792 795 797 798 799 801 802 802 802 803 802 802 803 804 804 805 806 807 808 809 810 811 812 813 813 814 815 815 815 816 817 818 820 821 821
810 811 810 803 800 806 803 804 804 800 794 797 800 798 792 796 798 800 800 801 802 802 803 803 803 803 803 803 803 803 804 804 805 806 808 809 810 811 812 812 813 814 815 816 817 818 819 820 821
811 811 814 815 810 809 805 807 804 800 798 796 798 798 793 797 800 801 802 802 802 802 803 803 803 802 802 803 803 803 802 802 803 804 805 806 808 808 809 810 812 813 813 814 815 816 818 819 821
814 812 816 813 803 808 810 809 807 806 799 802 800 794 791 793 799 800 802 803 802 802 802 802 803 803 802 802 802 802 801 801 801 801 802 803 805 806 807 808 809 810 812 812 813 815 817 818 819
818 815 812 810 816 808 812 814 806 808 807 802 799 797 797 799 798 800 801 801 802 802 801 801 801 802 802 801 800 800 800 800 800 800 800 800 801 803 804 805 807 807 809 811 812 814 816 817 819
816 817 813 819 818 816 814 816 812 810 801 801 797 796 799 799 800 799 798 798 799 800 800 800 800 800 801 800 799 799 798 798 798 798 799 798 798 799 800 802 803 805 806 809 811 812 814 816 818
822 817 821 818 818 819 817 814 809 808 803 795 795 792 794 796 798 798 798 798 797 798 797 798 799 799 799 799 799 798 797 796 796 796 796 796 796 795 796 798 800 802 804 806 807 809 811 813 814
822 821 822 818 818 818 814 808 805 800 793 791 790 792 793 791 791 792 793 792 794 795 795 794 795 796 797 797 797 797 795 794 793 793 792 793 793 793 791 793 795 796 799 801 803 804 806 808 809
824 822 822 819 818 816 811 808 803 793 789 789 787 787 789 789 787 786 786 787 788 788 790 791 792 793 794 794 795 794 793 792 791 789 788 789 789 789 789 789 789 790 793 794 797 798 800 802 804
824 823 820 816 813 811 809 799 796 782 785 783 782 779 777 779 781 783 783 782 782 784 786 788 789 790 791 791 791 790 789 788 786 785 784 784 784 785 785 785 785 785 787 789 790 793 795 796 799
826 826 813 812 812 807 804 792 787 781 781 779 779 775 773 774 774 778 779 780 781 781 782 784 786 787 787 788 787 786 785 784 782 781 780 779 779 779 780 780 780 780 780 782 784 786 789 791 793
823 822 814 808 809 804 808 778 777 774 778 774 771 769 771 769 771 769 772 774 777 779 780 780 782 783 784 784 784 782 781 780 778 776 775 773 773 774 774 775 774 776 776 776 776 779 781 784 786
821 816 818 811 809 810 809 784 769 773 772 767 764 762 762 765 765 767 766 769 773 775 777 779 780 779 780 780 779 778 776 774 773 771 770 768 768 768 768 769 769 770 770 771 773 772 775 777 779
824 821 814 815 804 804 800 785 769 762 759 756 753 754 755 758 761 762 764 764 769 772 774 775 776 776 776 776 775 773 771 770 768 766 765 763 762 762 762 762 763 765 764 764 766 766 768 768 773
831 827 819 805 805 808 789 783 764 755 752 749 745 749 751 752 758 760 761 763 764 768 771 773 774 774 774 773 772 770 768 766 764 762 760 759 758 757 756 756 756 757 757 758 759 761 762 763 767
827 821 808 804 803 810 788 776 757 756 755 751 746 747 750 754 756 757 758 760 763 765 768 770 770 771 771 770 769 767 765 762 760 758 755 753 753 752 751 750 750 750 751 752 753 755 756 758 761
816 815 809 814 807 795 794 750 751 748 750 747 746 748 751 753 756 756 757 759 762 764 766 766 768 768 768 767 766 764 762 758 756 753 750 748 747 747 746 745 745 744 745 745 747 748 749 749 752
815 816 818 814 810 792 800 774 755 749 745 746 746 746 751 753 755 758 759 759 761 763 764 763 764 764 764 764 763 761 758 755 752 750 746 744 743 741 740 739 739 738 738 738 739 741 742 744 742
814 811 815 815 810 807 794 795 748 746 747 747 750 749 749 752 754 755 759 761 760 760 760 761 761 761 760 760 760 757 754 751 748 744 741 739 736 735 733 733 732 732 732 732 733 734 734 734 736
819 810 810 815 807 792 803 802 753 753 758 750 746 749 750 749 750 753 756 757 759 758 757 757 756 756 756 755 753 751 747 746 743 740 736 733 731 729 728 726 726 726 726 726 726 727 727 727 727
815 799 792 786 790 779 804 796 763 750 753 757 755 752 751 750 749 750 750 751 752 753 754 754 753 751 750 750 749 746 744 742 739 735 732 729 726 724 722 721 720 719 719 720 720 719 719 719 718
826 821 811 810 797 791 788 780 749 753 752 753 755 754 752 750 750 749 748 748 748 749 750 750 749 748 746 744 743 742 742 741 736 731 728 725 722 718 716 714 714 713 713 712 712 712 711 711 710
824 824 832 829 840 824 780 765 754 753 750 749 749 751 750 749 749 748 747 747 747 746 746 745 745 744 743 742 741 739 737 734 732 730 726 722 718 714 711 708 706 706 705 703 704 704 704 703 703
830 832 825 827 815 796 766 774 754 750 751 751 749 749 748 748 747 746 745 745 743 742 742 741 741 740 739 738 737 735 735 733 730 727 723 717 712 708 705 701 699 698 696 695 696 696 697 696 695
831 828 833 837 828 812 799 757 749 753 757 758 753 749 747 745 743 742 740 739 738 738 737 735 734 734 735 736 734 732 731 729 727 722 718 713 709 705 700 696 693 690 689 688 689 689 689 688 687
832 825 822 817 821 825 827 786 757 758 760 762 756 752 748 745 741 738 737 735 733 732 731 730 730 730 729 730 729 728 726 724 721 716 714 710 705 702 698 692 688 685 683 683 682 682 681 680 679
Wind_Speed
4 3 1 0 4 4 5 4 2 4 4 2 1 5 5 6 2 1 6 6 7 7 7 7 11 10 10 9 9 11 11 10 9 9 9 8 8 9 9 10 9 9 8 7 6 15 13 12 12
4 2 1 1 4 6 5 1 5 2 1 1 1 4 5 3 1 7 9 6 7 7 7 7 6 10 11 12 11 9 11 10 9 9 10 10 9 9 10 10 9 9 10 10 7 11 12 11 12
4 4 2 3 3 8 5 2 3 2 3 5 3 2 3 0 2 11 8 8 8 8 7 7 6 6 11 11 10 10 9 10 10 10 9 10 10 10 10 10 10 11 12 13 11 13 13 10 12
0 3 3 5 9 3 3 2 2 4 3 5 3 5 2 1 9 5 11 8 7 7 7 7 6 6 7 11 11 11 11 11 10 11 10 10 10 11 11 11 12 12 14 14 14 13 13 11 12
4 1 4 5 7 3 5 4 3 6 3 5 4 3 2 4 2 10 9 6 6 5 6 5 6 6 5 6 9 11 12 13 13 13 13 10 10 11 12 12 9 12 13 15 15 15 14 12 13
2 2 4 9 8 3 4 3 6 8 7 3 5 6 2 2 8 10 7 5 3 3 3 4 3 4 4 4 4 4 8 12 14 15 14 13 11 12 12 13 12 12 13 15 16 17 16 14 14
1 1 3 5 7 6 2 4 7 7 9 9 1 5 0 7 9 7 5 4 3 2 2 2 2 2 1 2 3 3 4 5 9 14 15 14 14 13 13 15 14 15 16 16 18 18 18 16 16
1 2 3 4 7 5 3 6 4 6 9 4 2 5 3 8 10 6 5 4 2 2 1 1 1 1 1 0 3 3 3 4 5 7 13 16 16 16 15 17 16 15 17 15 18 19 18 17 18
1 3 6 5 4 2 3 6 1 3 8 6 5 7 5 1 7 8 8 7 5 3 2 1 1 1 1 0 2 3 5 5 5 6 8 14 18 17 18 18 18 17 17 15 18 19 18 18 18
1 3 3 2 3 6 10 8 10 7 10 10 13 10 5 2 7 9 10 10 8 6 5 5 3 2 1 2 3 3 5 5 6 6 6 7 14 17 17 18 20 20 20 19 19 19 19 18 16
1 3 1 3 4 5 8 12 8 11 16 16 16 10 10 7 8 9 11 11 11 9 8 7 6 4 3 4 5 5 5 6 7 8 8 9 10 13 19 19 19 20 21 19 20 19 18 18 18
4 4 4 3 4 5 11 9 16 17 21 19 17 13 11 12 12 14 16 17 16 15 13 10 9 7 6 5 6 7 7 8 9 10 11 11 12 13 17 19 19 20 21 22 21 21 21 21 22
5 3 4 9 12 15 17 19 20 22 19 20 21 18 18 17 21 23 22 19 17 15 15 13 11 9 7 8 8 8 9 10 11 11 13 13 14 16 15 17 20 22 23 23 23 23 23 23 23
2 8 13 11 13 11 13 18 15 17 15 19 20 22 20 20 23 22 19 20 19 18 15 13 12 9 9 9 10 11 12 12 12 13 14 15 17 17 18 18 19 24 24 25 27 24 26 25 24
5 8 10 7 4 6 10 20 18 18 16 18 20 18 17 16 19 20 24 23 18 19 15 13 11 10 10 11 12 12 13 13 14 14 14 15 17 19 20 21 22 21 26 27 28 26 25 26 26
4 3 5 2 9 5 3 21 19 16 17 23 22 20 12 13 13 10 13 18 14 14 14 12 10 11 11 12 13 14 15 15 16 16 15 16 17 20 21 22 23 23 22 27 30 30 28 28 27
1 8 10 10 3 10 7 26 21 25 23 24 22 21 19 15 16 13 11 13 13 13 12 11 10 11 11 12 13 14 15 16 17 17 16 17 17 19 22 24 24 24 25 24 30 29 28 28 29
7 8 6 14 10 18 23 29 27 24 19 20 21 20 19 16 15 13 8 11 13 12 11 11 10 9 9 10 11 13 14 14 14 16 17 17 17 18 20 23 25 25 26 27 26 26 29 30 28
9 13 17 18 11 18 16 25 26 21 14 14 14 15 15 15 10 12 10 11 13 12 11 9 8 7 7 8 9 10 11 13 15 15 17 19 19 18 20 22 24 26 28 28 29 28 26 29 27
11 15 16 9 11 18 18 26 18 11 13 13 10 8 11 11 11 12 12 11 12 10 9 8 8 7 6 7 8 9 11 13 16 17 18 20 20 20 21 22 23 24 26 29 29 29 26 29 27
12 12 12 16 21 6 17 6 9 9 9 11 6 4 7 9 10 10 10 11 9 9 8 6 6 7 7 8 9 9 11 14 14 16 15 15 17 19 21 23 23 23 25 27 29 30 30 25 28
9 0 9 17 13 5 11 6 7 13 11 13 13 8 5 4 6 6 6 6 6 6 5 6 7 8 7 7 9 11 14 15 16 18 19 20 19 20 21 22 25 25 24 26 27 29 30 29 28
8 15 16 10 6 7 3 5 6 9 12 15 13 11 7 4 0 1 2 3 4 5 6 7 9 9 8 9 10 11 13 14 17 18 19 20 23 23 24 23 22 25 26 26 26 27 29 32 31
14 11 5 2 2 3 4 5 6 9 11 15 14 10 6 6 7 4 3 4 6 6 7 8 9 10 9 9 10 11 14 17 17 17 18 20 21 22 21 21 22 22 24 26 27 29 31 31 33
12 9 3 2 2 3 2 6 8 13 10 12 14 12 7 1 2 4 5 6 6 7 9 10 10 10 9 10 11 12 14 15 16 17 18 19 20 20 21 20 22 22 24 27 28 29 31 34 36
6 7 3 5 5 7 5 4 2 8 13 6 5 6 5 4 4 5 5 6 8 9 10 11 11 11 9 9 11 12 14 15 16 16 19 21 23 24 23 26 26 25 26 26 27 29 31 32 35
3 4 4 3 1 4 4 5 8 2 3 7 7 7 7 7 7 7 8 10 11 11 12 11 11 10 10 10 11 12 12 13 16 17 16 16 19 22 23 25 27 29 29 28 27 28 29 30 31
2 3 0 1 5 6 5 7 5 1 5 8 10 11 11 9 9 8 9 13 14 14 14 13 13 12 11 11 10 11 13 13 14 13 15 17 19 21 21 22 23 27 28 26 24 25 26 29 30
3 2 2 1 3 4 6 6 2 4 4 8 9 13 15 13 13 12 10 13 14 14 15 15 14 13 14 13 12 11 12 13 13 11 14 16 18 18 18 20 21 25 26 25 22 25 27 28 28
2 2 3 1 1 3 3 8 2 4 3 6 14 15 14 12 12 11 12 17 17 16 16 18 17 17 16 14 13 13 12 12 11 10 13 14 16 17 17 17 18 20 23 22 22 23 24 26 26
Wind_Direction
31 66 58 252 205 240 231 214 311 204 216 189 234 230 229 337 229 18 120 112 105 100 101 95 177 194 186 177 182 185 178 183 183 180 184 187 196 203 201 203 201 199 195 191 160 161 154 152 151
55 61 48 144 249 230 224 223 233 233 11 90 207 231 234 210 106 122 141 125 115 100 88 99 150 190 195 188 198 198 187 193 193 197 198 192 197 196 201 199 198 201 196 193 169 165 165 168 163
79 52 223 232 237 245 271 234 264 228 208 220 226 245 297 56 155 144 130 128 116 103 92 87 119 164 187 198 206 208 204 200 202 209 221 205 202 198 198 197 196 194 193 196 188 183 183 184 167
101 154 124 244 238 242 265 1 304 241 218 225 259 234 208 172 154 155 143 131 125 108 98 101 106 122 170 194 203 214 218 217 209 215 230 217 208 203 200 204 209 210 199 196 195 195 197 192 174
48 231 215 232 247 258 254 305 286 255 258 225 221 242 243 173 182 156 153 147 138 112 97 95 112 121 139 167 203 215 219 223 227 221 224 226 216 208 208 205 219 212 205 202 198 208 203 200 182
111 288 235 239 248 268 280 288 275 251 249 231 233 257 249 147 167 167 166 161 132 114 90 85 96 121 133 149 167 187 215 230 230 226 231 231 225 218 214 207 220 212 203 202 205 208 206 202 192
94 270 288 294 283 284 280 326 248 284 268 246 287 246 313 190 175 177 185 175 150 114 91 68 70 90 140 179 175 192 206 222 231 232 230 231 231 227 219 215 221 222 220 222 220 213 207 207 200
80 247 226 224 266 282 18 324 310 282 288 351 270 250 228 189 182 188 199 212 217 190 166 115 41 37 66 121 227 226 234 239 237 229 235 232 228 233 229 225 226 228 227 227 214 203 208 211 206
222 225 255 266 245 329 4 340 309 292 275 285 266 282 349 233 178 192 203 208 218 235 240 231 227 329 357 348 278 269 261 255 257 258 251 231 228 227 229 226 224 227 223 220 208 209 215 214 211
293 267 309 354 307 295 306 303 314 295 268 268 254 247 259 238 215 222 219 227 231 240 246 250 250 238 286 308 308 300 293 281 272 264 263 258 236 229 225 229 231 229 225 225 224 222 221 215 215
114 260 193 259 263 284 288 283 277 274 271 264 269 277 228 218 228 244 251 253 257 259 249 242 237 244 267 289 298 295 294 287 280 270 260 254 251 240 233 232 226 227 229 225 228 225 219 219 219
265 244 244 275 255 260 262 278 266 256 258 266 261 267 258 240 240 246 251 254 259 257 251 231 225 238 253 274 284 291 296 289 281 270 260 254 249 248 238 232 229 222 221 222 223 222 220 222 224
258 293 271 270 276 272 274 265 266 269 266 261 265 261 253 254 261 262 252 246 247 241 232 227 220 232 252 269 277 284 288 288 283 273 262 252 250 246 245 243 233 226 222 219 221 223 223 223 226
306 283 279 280 275 267 268 270 269 256 260 262 262 261 250 253 252 256 258 252 237 231 227 219 224 234 253 266 273 281 282 282 279 274 268 256 248 246 244 244 244 236 227 221 217 221 221 226 228
294 294 289 254 268 286 306 269 248 271 276 272 266 262 267 255 241 250 253 260 258 235 221 218 228 242 253 267 275 280 279 280 274 269 267 261 252 247 244 243 242 241 238 232 227 223 219 222 225
282 264 329 108 307 292 292 286 301 295 290 281 266 265 262 251 213 249 250 239 243 223 217 217 230 250 265 271 276 277 278 276 272 269 265 261 255 249 247 244 240 239 238 238 224 222 218 223 226
32 307 308 322 289 310 268 293 299 301 292 280 268 262 262 255 251 256 242 221 220 213 214 227 243 255 266 274 277 278 276 272 272 270 267 263 257 250 244 244 243 237 236 236 231 225 221 220 222
310 313 291 305 305 309 294 285 295 305 302 288 272 263 255 249 252 261 243 212 207 213 225 235 241 251 262 274 280 281 280 278 274 271 269 266 258 252 246 244 242 240 239 236 233 228 224 221 224
294 291 295 302 330 316 304 300 302 312 311 311 297 250 253 248 250 253 232 211 208 217 232 244 251 260 261 275 283 285 284 287 285 279 274 269 264 255 248 244 241 238 238 237 237 234 232 227 225
287 296 306 316 317 317 308 300 301 326 329 319 322 257 254 269 258 246 221 205 213 219 223 243 257 267 267 270 277 279 289 287 288 286 285 272 265 261 254 246 242 237 238 238 237 235 232 235 223
294 283 304 312 321 290 319 282 343 8 349 5 17 298 267 263 275 267 225 211 205 221 232 238 256 273 276 277 282 283 286 285 283 286 287 284 273 266 258 250 245 241 238 238 237 235 235 235 227
308 77 303 309 324 329 6 306 330 343 6 27 27 34 356 297 258 270 270 233 221 237 243 262 271 278 281 280 285 284 285 285 285 286 284 283 278 274 265 256 247 242 240 238 237 236 235 234 234
278 308 307 302 283 305 27 281 312 352 355 7 19 28 58 41 278 154 240 239 219 228 247 268 276 281 285 285 287 293 293 292 288 285 282 279 279 276 270 259 250 244 242 241 239 239 236 234 237
292 297 292 209 285 253 18 341 317 359 340 329 343 4 33 99 120 134 176 218 244 247 245 248 260 275 284 286 295 298 300 304 301 293 287 280 279 279 268 261 254 248 246 243 241 240 240 239 237
332 326 331 316 339 320 5 296 266 321 343 324 318 328 337 331 165 179 203 218 234 245 253 255 256 269 287 300 302 305 304 308 305 302 294 295 289 280 276 268 259 254 249 245 241 240 239 240 240
359 350 23 311 325 311 307 248 22 318 315 334 323 325 323 316 287 276 269 262 259 255 254 259 266 277 285 293 298 303 305 303 310 315 308 297 292 289 288 275 267 260 256 251 247 244 244 246 243
19 34 350 297 234 273 281 271 272 329 39 22 19 358 348 327 307 288 275 264 266 261 261 260 265 274 285 292 295 295 297 303 302 305 304 297 295 295 290 288 267 264 259 251 245 246 246 249 247
327 115 265 51 320 301 281 282 263 187 355 355 1 352 343 325 301 284 276 270 263 259 259 253 255 262 271 280 284 288 290 292 294 297 303 311 309 303 292 302 275 269 262 253 246 249 247 250 251
164 182 130 235 293 304 311 285 232 274 321 318 325 324 322 313 303 300 286 275 267 267 262 259 257 258 264 268 270 276 284 285 287 298 315 318 313 315 307 304 297 274 262 253 245 245 248 248 248
307 274 226 271 163 239 293 273 255 284 309 309 317 321 319 312 306 302 289 279 271 262 258 253 253 250 248 252 262 272 276 280 293 311 314 321 326 326 320 312 309 287 268 256 249 250 251 251 247